Location: Innsbruck
(47.2657°N, 11.3914°E)
Time: 19:41:29
(UTC+01:00)

BEESAT 3 - Pass Details

Date: 10 December 2021
Orbit: 472 x 512 km, 64.9° (Epoch: 22 January)

Event Time Altitude Azimuth Distance (km) Brightness Sun altitude
Rises 17:14:11 0° 187° (S) 2,541 ? -8.2°
Reaches altitude 10° 17:16:31 10° 174° (S) 1,674 ? -8.6°
Maximum altitude 17:19:41 26° 116° (ESE) 997 ? -9.1°
Enters shadow 17:22:20 13° 64° (ENE) 1,519 ? -9.5°
